This is the latest recevied weather packets stored in our database for station/object PU3WIW-13. If no packets are shown the sender has not sent any weather packets the latest 10 day(s).
| Time | Temp. | Humidity | Pressure | Rain* | Wind** | Luminosity | Snow |
|---|---|---|---|---|---|---|---|
| 1777470093 | 17.22° C | 10% | 1008.6 hPa | 0 mm | - | - | - |
| 1777469913 | 16.67° C | 10% | 1008.6 hPa | 0 mm | - | - | - |
| 1777469734 | 16.67° C | 10% | 1008.5 hPa | 0 mm | - | - | - |
| 1777469553 | 16.11° C | 10% | 1008.6 hPa | 0 mm | - | - | - |
| 1777469373 | 16.11° C | 10% | 1008.7 hPa | 0 mm | - | - | - |
| 1777469193 | 16.11° C | 10% | 1008.6 hPa | 0 mm | - | - | - |
| 1777469013 | 16.11° C | 10% | 1008.6 hPa | 0 mm | - | - | - |
| 1777468832 | 16.11° C | 10% | 1008.6 hPa | 0 mm | - | - | - |
| 1777468653 | 15.56° C | 10% | 1008.7 hPa | 0 mm | - | - | - |
| 1777468472 | 15.56° C | 10% | 1008.7 hPa | 0 mm | - | - | - |
| 1777468294 | 15° C | 10% | 1008.7 hPa | 0 mm | - | - | - |
| 1777468113 | 15° C | 10% | 1008.9 hPa | 0 mm | - | - | - |
| 1777467932 | 14.44° C | 10% | 1008.9 hPa | 0 mm | - | - | - |
| 1777467752 | 13.89° C | 10% | 1008.9 hPa | 0 mm | - | - | - |
| 1777467573 | 13.33° C | 10% | 1009 hPa | 0 mm | - | - | - |
| 1777467392 | 12.78° C | 10% | 1008.7 hPa | 0 mm | - | - | - |
| 1777467212 | 12.22° C | 10% | 1009 hPa | 0 mm | - | - | - |
| 1777467033 | 12.22° C | 10% | 1009.1 hPa | 0 mm | - | - | - |
| 1777466852 | 12.22° C | 10% | 1009.1 hPa | 0 mm | - | - | - |
| 1777466671 | 12.22° C | 10% | 1009.2 hPa | 0 mm | - | - | - |
| 1777466493 | 12.22° C | 10% | 1009.2 hPa | 0 mm | - | - | - |
| 1777466312 | 11.67° C | 10% | 1009.1 hPa | 0 mm | - | - | - |
| 1777466131 | 11.67° C | 10% | 1009.2 hPa | 0 mm | - | - | - |
| 1777465951 | 11.67° C | 10% | 1009.2 hPa | 0 mm | - | - | - |
| 1777465772 | 11.67° C | 10% | 1009.2 hPa | 0 mm | - | - | - |
* Rain latest hour (hover to see other rain measurements)
** Current wind speed in m/s (hover to see current wind gust speed)